sat.trackr.live / text

‹ back to catalog

STARLINK-5610

NORAD 57244 · 2023-094AC

PAYLOAD ACTIVE UNKNOWN

§ Identity

Operator
Country
US
Launch date
2023-07-07
Launch site
AFWTR
Launch vehicle
Mass (kg)
RCS (m²)

Purposes: comms

External: N2YO · Heavens-Above · Gunter

§ Orbital elements

Epoch: 2026-05-25T04:16:55.824960Z

Period
94.27 min
Inclination
43.0054°
Eccentricity
0.0002050
Mean motion
15.27575757 rev/d
Perigee alt
481.7 km
Apogee alt
484.5 km
Semi-major
6,861.2 km
B*
-3.2105e-5
RAAN
307.4366°
Arg perigee
261.0639°
Mean anomaly
98.9980°
Rev number
15,894

§ Raw data

STARLINK-56101 57244U 23094AC  26145.17842390 -.00001146  00000+0 -32105-4 0  99902 57244  43.0054 307.4366 0002050 261.0639  98.9980 15.27575757158944

JSON: /api/v1/satellites/57244 · /tle

For live sub-satellite position, see the globe view (requires WebGL).

§ Visibility from observer

Set your observer location to see the next 7 days of passes ≥ 10°. The values pass through the URL so the page stays shareable.

No JS? Fill the form by hand. The geolocation button needs JavaScript.